Regional Weather Roundup
Issued by NWS

Home | Current Version | Previous Version | Text Only | Print | Product List | Glossary On
Versions: 1 2 3 4 5 6 7 8 9 10 11 12 13 14 15 16 17 18 19 20 21 22 23 24 25 26 27 28 29 30 31 32 33 34 35 36 37 38 39 40 41 42 43 44 45 46 47 48 49 50
000
ASUS43 KMPX 222310
RWRMN
WEATHER ROUNDUP FOR MINNESOTA
NATIONAL WEATHER SERVICE TWIN CITIES/CHANHASSEN MN
600 PM CDT FRI SEP 22 2017


NOTE: "FAIR" INDICATES FEW OR NO CLOUDS BELOW 12,000 FEET WITH NO
SIGNIFICANT WEATHER AND/OR OBSTRUCTIONS TO VISIBILITY. N/A MEANS
CURRENT SKY AND/OR WEATHER CONDITIONS ARE NOT AVAILABLE.

MNZ060>063-068>070-230000-
   Twin Cities Metro

CITY           SKY/WX    TMP DP  RH WIND       PRES   REMARKS
TWIN CITIES    MOSUNNY   93  70  46 S14G26    29.79S HX  99
ST PAUL        SUNNY     90  69  50 S21G31    29.79S HX  94
CRYSTAL        SUNNY     91  67  44 S17G26    29.77R HX  94
BLAINE         MOSUNNY   91  68  46 S14G21    29.78S HX  95
LAKEVILLE      SUNNY     88  70  55 S9        29.81R HX  92
EDEN PRAIRIE   SUNNY     90  71  53 S13       29.77S HX  96
SOUTH ST PAUL  SUNNY     92  66  42 S12G18    29.80S HX  94
LAKE ELMO      FAIR      90  70  51 S10       29.82S HX  95
$$
MNZ001>005-007-008-013>017-022>024-027-028-230000-
   Northwest Minnesota

CITY           SKY/WX    TMP DP  RH WIND       PRES   REMARKS
BEMIDJI        PTSUNNY   77  72  83 SE8       29.72S
HALLOCK          N/A     64  54  68 N13       29.73R
ROSEAU         CLOUDY    66  63  88 NE10      29.73F
WARROAD        DRIZZLE   64  61  88 NE8       29.74F
THIEF RVR FALL CLOUDY    74  68  81 E9        29.68F
CROOKSTON      CLOUDY    79  68  69 E9        29.65F
FOSSTON        PTSUNNY   81  68  65 S10       29.70R
DETROIT LAKES  SUNNY     82  72  69 SE13      29.69S
MOORHEAD       SUNNY     86  72  62 SE13G18   29.64S HX  92
PARK RAPIDS    PTSUNNY   83  73  72 S14       29.71F
MAHNOMEN       MOCLDY    82  72  71 S12G21    29.68R
$$
MNZ006-009>011-018-025>026-230000-
   North Central Minnesota

CITY           SKY/WX    TMP DP  RH WIND       PRES   REMARKS
BAUDETTE       CLOUDY    71  66  84 NE7       29.74F
FLAG ISLAND    PTSUNNY   70  57  64 NE12G22   29.75F
INTL FALLS     CLOUDY    74  67  78 SE5       29.77R
WASKISH        PTSUNNY   72  70  94 E6        29.74F
BIG FORK       CLOUDY    75  70  83 S3        29.76S
LONGVILLE      MOSUNNY   81  73  78 SE8       29.74S
GRAND RAPIDS   MOSUNNY   79  73  82 S9G17     29.77S
CRANE LAKE     CLOUDY    77  70  78 CALM      29.79S
ORR            CLOUDY    75  66  73 SE7       29.74F
COOK           CLOUDY    77  70  78 SE3       29.78S
WALKER         FAIR      79  72  79 S9        29.72S
$$
MNZ012-019>021-037-230000-
   Northeast Minnesota

CITY           SKY/WX    TMP DP  RH WIND       PRES   REMARKS
DULUTH         MOSUNNY   75  69  81 SE8       29.82F
ELY            CLEAR     77  66  69 SE5       29.81F
HIBBING        MOSUNNY   77  71  82 SE7       29.77F
EVELETH        CLOUDY    78  69  73 S8        29.80F
DULUTH HARBOR  CLOUDY    66  64  94 NE5       29.81S
SILVER BAY     CLEAR     73  66  78 E6        29.83S
GRAND MARAIS     N/A     63  60  90 NE14      29.87R
G MARAIS ARPRT CLOUDY    66  57  72 SE6       29.92R
$$
MNZ029>031-032-039>041-046>048-054>057-064-230000-
   West Central Minnesota

CITY           SKY/WX    TMP DP  RH WIND       PRES   REMARKS
FERGUS FALLS   MOSUNNY   84  72  65 S9        29.65S
WHEATON        SUNNY     90  66  45 S12       29.65S HX  92
MORRIS         SUNNY     90  70  51 S18       29.67R HX  95
ELBOW LAKE     FAIR      86  71  61 S16G23    29.68R HAZE    HX  91
WADENA         SUNNY     84  72  65 SE9       29.70S
GLENWOOD       SUNNY     88  72  58 S17       29.72S HX  94
APPLETON       SUNNY     90  66  45 S10G22    29.67R HX  92
BENSON         SUNNY     90  70  51 SW17G23   29.69S HX  95
ORTONVILLE     SUNNY     90  70  51 N10       29.66S HX  95
MADISON        SUNNY     91  70  49 S13G25    29.67S HX  97
WILLMAR        FAIR      90  72  55 S6        29.73R HX  96
$$
MNZ033>034-036-042>043-049>051-058-059-230000-
   Central Minnesota

CITY           SKY/WX    TMP DP  RH WIND       PRES   REMARKS
ST CLOUD       SUNNY     88  73  61 SE13      29.74S HX  95
SAUK CENTRE    FAIR      85  73  67 SE10G16   29.72S HX  91
PAYNESVILLE    SUNNY     88  71  57 S9        29.74S HX  94
AITKIN         SUNNY     82  72  69 S10       29.74S
PINE RIVER     SUNNY     79  70  73 SE9       29.76F
BRAINERD       SUNNY     83  72  69 SE9       29.73F
STAPLES        SUNNY     84  72  65 S14G22    29.71F
LITTLE FALLS   SUNNY     86  64  48 SE10G16   29.74S
LITCHFIELD     MOSUNNY   90  72  55 SE5       29.74S HX  96
BUFFALO        SUNNY     89  69  50 SE10G17   29.77S HX  93
MAPLE LAKE     SUNNY     89  73  60 S8        29.76S HX  96
HUTCHINSON     MOSUNNY   90  73  57 SE6       29.76S HX  97
$$
MNZ037-044-045-052-053-230000-
   East Central Minnesota

CITY           SKY/WX    TMP DP  RH WIND       PRES   REMARKS
PRINCETON      SUNNY     90  72  55 SE13G21   29.76S HX  96
MORA           SUNNY     86  70  58 S8        29.78F HX  90
CAMBRIDGE      SUNNY     91  72  52 SE13G18   29.77F HX  98
RUSH CITY      SUNNY     88  70  55 S10       29.79S HX  93
MOOSE LAKE     SUNNY     82  72  69 SE6       29.77S
HINCKLEY       FAIR      86  73  66 SE8       29.79S HX  93
CLOQUET        SUNNY     81  72  74 SE7       29.80F
MCGREGOR       SUNNY     82  72  69 SE10G22   29.76F
$$
MNZ071>073-080-081-089-090-097-098-230000-
   Southwest Minnesota

CITY           SKY/WX    TMP DP  RH WIND       PRES   REMARKS
MONTEVIDEO     SUNNY     91  70  49 SW9G21    29.69R HX  97
GRANITE FALLS  MOSUNNY   91  72  52 S13G20    29.72R HX  98
CANBY          SUNNY     89  69  51 S12G25    29.69S HX  93
MARSHALL       SUNNY     89  71  55 S16       29.72  HX  95
REDWOOD FALLS  LGT RAIN  91  68  46 S20G28    29.72R HX  95
OLIVIA         SUNNY     90  70  51 S15G23    29.72S HX  95
PIPESTONE      MOSUNNY   86  70  58 S9        29.75S HX  90
WINDOM         SUNNY     90  66  45 S16G29    29.77R HX  92
WORTHINGTON    SUNNY     88  70  55 S20G25    29.78R HX  93
JACKSON        SUNNY     90  64  43 S17G28    29.81R HX  91
TRACY          SUNNY     89  71  55 S12G17    29.75R HX  95
SLAYTON        SUNNY     89  63  42 S21G29    29.77S
$$
MNZ065>067-074>077-082>085-091>093-230000-
   South Central Minnesota

CITY           SKY/WX    TMP DP  RH WIND       PRES   REMARKS
MANKATO        SUNNY     90  70  51 S15       29.79S HX  95
NEW ULM        SUNNY     91  66  43 S23G30    29.75S HX  94
ST JAMES       SUNNY     91  66  43 S22G28    29.78S HX  94
FAIRMONT       SUNNY     91  69  48 S21G29    29.80R HX  96
GLENCOE        SUNNY     91  74  57 SE13G21   29.76S HX  99
FARIBAULT      SUNNY     90  68  48 SE15G24   29.82S HX  93
OWATONNA       SUNNY     90  68  48 S17G24    29.84S HX  93
WASECA         SUNNY     88  64  45 S15G25    29.84S
ALBERT LEA     SUNNY     91  66  43 S10G20    29.86S HX  94
$$
MNZ078>079-086>088-094>096-230000-
   Southeast Minnesota

CITY           SKY/WX    TMP DP  RH WIND       PRES   REMARKS
ROCHESTER      SUNNY     88  66  48 S18G31    29.89S HX  90
RED WING       MOSUNNY   91  61  35 S10       29.83R HX  91
STANTON        SUNNY     90  65  43 S13G23    29.81R HX  92
DODGE CENTER   SUNNY     88  63  42 S20G26    29.88R
WINONA         SUNNY     91  63  38 S3        29.89R HX  92
AUSTIN         SUNNY     88  64  45 S14G22    29.88S
PRESTON        SUNNY     87  62  42 S16G24    29.92S
$$
ABBREVIATIONS USED IN REMARKS
   TC - TEMPERATURES IN CELSIUS
  WCI - WIND CHILL INDEX
   HX - HEAT INDEX
  VSB - VISIBILITY
$$



USA.gov is the U.S. government's official web portal to all federal, state and local government web resources and services.